User: anonymous   Login
Location: Unspecified
(0.0000°N, 0.0000°E)
Time: 20:05:31
(UTC+00:00)
Language:

KUIPER-00083 - Orbit

View from above orbital plane
View from above orbital plane
View from above satellite
View from above satellite

Ground track
Ground track

The orbit is defined by the following mean orbital elements,

1 64829U          26145.47933323 +.00000000 +00000-0 +14365-4 0 00007
2 64829  51.9011 316.0323 0001138 115.3664 244.7416 14.79944118    01
Epoch (UTC): 25 May 2026 11:30:14
Eccentricity: 0.0001138
inclination: 51.9011°
perigee height: 629 km
apogee height: 630 km
right ascension of ascending node: 316.0323°
argument of perigee: 115.3664°
revolutions per day: 14.79944118
mean anomaly at epoch: 244.7416°

The dashed part of the orbit path shows where the satellite is in the earth's shadow,  

DLR